Regional Weather Roundup
Issued by NWS Green Bay, WI

Home | Current Version | Previous Version | Graphics & Text | Print | Product List | Glossary Off
Versions: 1 2 3 4 5 6 7 8 9 10 11 12 13 14 15 16 17 18 19 20 21 22 23 24 25 26 27 28 29 30 31 32 33 34 35 36 37 38 39 40 41 42 43 44 45 46 47 48 49 50

000
ASUS43 KGRB 291211
RWRGRB

NORTH-CENTRAL AND NORTHEAST WISCONSIN REGIONAL WEATHER ROUNDUP
NATIONAL WEATHER SERVICE GREEN BAY WI
700 AM CDT SAT AUG 29 2015

WIZ005-009-010>012-018-019-291300-
NORTH CENTRAL WISCONSIN

CITY           SKY/WX    TMP DP  RH WIND       PRES   REMARKS
IRONWOOD       MOCLDY    57  54  88 S9        29.96R
MANITOWISH WTR PTCLDY    55  55 100 S10       30.02F
ARBOR VITAE    PTCLDY    57  56  95 S8        30.04F
EAGLE RIVER    CLEAR     54  54 100 CALM      30.07F
LAND O LAKES   CLEAR     56  54  93 S7        30.06F
RHINELANDER    MOCLDY    54  52  93 S6        30.09F
PHILLIPS       CLOUDY    50  50 100 S6        30.07F
ANTIGO         CLOUDY    55  55  99 CALM      30.10S
TOMAHAWK       CLOUDY    52  51  97 CALM      30.10F FOG
MERRILL        CLOUDY    55  55 100 CALM      30.12R
$$

WIZ013-073-291300-
NORTHEAST WISCONSIN

CITY           SKY/WX    TMP DP  RH WIND       PRES   REMARKS
IRON MOUNTAIN  CLEAR     56  54  93 S6        30.06R
MARINETTE      CLOUDY    59  54  82 S3        30.08F
OCONTO         CLOUDY    57  57 100 CALM      30.09S
$$

WIZ017-030-035>037-045-291300-
CENTRAL WISCONSIN

CITY           SKY/WX    TMP DP  RH WIND       PRES   REMARKS
MEDFORD        CLOUDY    54  54 100 E6        30.09S FOG
WAUSAU         CLOUDY    58  55  90 CALM      30.08R
MOSINEE        CLOUDY    57  57 100 CALM      30.10R
MARSHFIELD     CLOUDY    59  55  87 NE5       30.08R FOG
WISC RAPIDS    LGT RAIN  59  56  89 E7        30.07S FOG
STEVENS POINT  CLOUDY    57  56  98 E5        30.08S FOG
WAUPACA        CLOUDY    60  60  97 N3        30.08S FOG
SHAWANO        DRIZZLE   60  58  93 CALM      30.09S
CLINTONVILLE   DRIZZLE   57  55  94 NE3       30.08S
WAUTOMA        CLOUDY    60  60 100 E7        30.07R FOG
$$

WIZ038-039-048-051-291300-
FOX VALLEY

CITY           SKY/WX    TMP DP  RH WIND       PRES   REMARKS
NWS GREEN BAY  CLOUDY    60  59  96 NE3       30.09S FOG
APPLETON       CLOUDY    59  59 100 VRB5      30.07R FOG
OSHKOSH        CLOUDY    60  58  92 E8        30.07R
FOND DU LAC    LGT RAIN  60  59  96 E6        30.05F
$$

WIZ022-050-052-291300-
EAST CENTRAL WISCONSIN

CITY           SKY/WX    TMP DP  RH WIND       PRES   REMARKS
EPHRAIM        CLOUDY    58  57  96 CALM      30.09S
STURGEON BAY   CLOUDY    59  55  88 S5        30.12R
MANITOWOC      CLOUDY    56  56 100 MISG      30.10R
SHEBOYGAN      CLOUDY    57  56  96 E8        30.07F FOG
$$

LMZ563-521-522-541>543-291300-
LAKESHORE

STATION/POSITION TIME  TEMP    WIND        PRES    VSBY  WAVE
                       AIR SEA DIR/SP/G                  HT/PER
                 (UTC) (F)     (DEG/KT/KT) (MB)    (MI)  (FT/S)
SHEBOYGAN LKSHOR 1200   54      50/  5/  5 1018.8F
ALGOMA MARINA    1114             CALM       N/A
NORTHPORT PIER   1200   60     150/  4/  7 1018.6F
N MID LAKE BUOY  1150   61 64  200/ 12/ 14 1018.6F         2/ 4
S GREEN BAY BUOY 1200   60 62  160/  4/  4 1020.4R
SISTER BAY LKSHO 1119   61        CALM       N/A
CHAMBERS ISLAND  1100   59     240/  2/  5 1019.3R
$$



USA.gov is the U.S. government's official web portal to all federal, state and local government web resources and services.